Flag for Germany Weather past 2 weeks in Friesoythe, Lower Saxony, Germany

Now
61 °F

Light rain. Partly sunny.


Feels Like: 61 °F
Forecast: 62 / 78 °F
Wind: 3 mph from Northeast

Location: Meppen-Mil

Current Time: Jul 25, 2014 at 9:22:18 AM

Latest Report: Jul 25, 2014 at 8:20 AM


Visibility: N/A

Pressure: 30.04 "Hg

Humidity: 88%

Dew point: 57 °F

Location of FriesoytheLocation

Historic Weather in Friesoythe — Graph

°F

Friesoythe temperature yesterday

Maximum temperature yesterday: 77 °F (at 1:20 PM)
Minimum temperature yesterday: 55 °F (at 5:20 AM)
Average temperature yesterday: 68 °F

Past Weeks' High & Low Weather Summary

 TemperatureHumidityPressure
High93 °F (Jul 19, 2:20 PM)94% (Jul 10, 8:20 AM)30.18 "Hg (Jul 10, 8:20 AM)
Low54 °F (Jul 12, 6:20 AM)21% (Jul 19, 3:20 PM)29.74 "Hg (Jul 20, 6:20 PM)
Average70 °F68%29.99 "Hg
* Reported Jul 10 8:20 AM — Jul 25 8:20 AM, Friesoythe, Weather by CustomWeather, © 2014

Note: Actual official high and low records may vary slightly from our data, if they occured in-between our weather recording intervals... More about our weather records

Advertising

Friesoythe weather history for previous 24 hours

 ConditionsComfort  
Time TempWeatherWind HumidityBarometerVisibility
8:20 AM
Jul 25
61 °FLight rain. Partly sunny.3 mph88%30.04 "HgN/A
7:20 AM63 °FLight rain. Passing clouds.3 mph83%30.04 "HgN/A
6:20 AM63 °FPassing clouds.5 mph83%30.01 "HgN/A
5:20 AM63 °FMild.3 mph83%30.04 "HgN/A
4:20 AM61 °FCool.3 mph88%30.04 "HgN/A
3:20 AM63 °FMild.5 mph83%30.04 "HgN/A
2:20 AM63 °FMild.2 mph83%30.04 "HgN/A
1:20 AM63 °FMild.5 mph77%30.04 "HgN/A
12:20 AM64 °FMild.5 mph73%30.04 "HgN/A
11:20 PM
Jul 24
66 °FMild.5 mph64%30.04 "HgN/A
10:20 PM68 °FMild.5 mph64%30.04 "HgN/A
9:20 PM70 °FMild.2 mph64%30.04 "HgN/A
8:20 PM72 °FMild.3 mph61%30.01 "HgN/A
7:20 PM73 °FMild.6 mph50%30.01 "HgN/A
6:20 PM77 °FWarm.10 mph42%30.01 "Hg6 mi
5:20 PM77 °FWarm.10 mph44%30.01 "HgN/A
4:20 PM75 °FScattered showers. Scattered clouds.8 mph57%30.01 "HgN/A
3:20 PM70 °FScattered clouds.13 mph64%30.04 "HgN/A
2:20 PM72 °FSprinkles. Broken clouds.7 mph61%30.04 "HgN/A
1:20 PM77 °FPartly sunny.10 mph44%30.04 "HgN/A
12:20 PM75 °FScattered clouds.7 mph50%30.04 "HgN/A
11:20 AM73 °FPassing clouds.8 mph61%30.04 "HgN/A
10:20 AM72 °FPassing clouds.8 mph65%30.04 "HgN/A
9:20 AM68 °FPassing clouds.7 mph69%30.07 "HgN/A
Weather by CustomWeather, © 2014

See weather overviewHow to use our weather pages